Flag for Peru Weather past 2 weeks in Trujillo, La Libertad, Peru

Now
61 °F

Cool.


Feels Like: 61 °F
Forecast: 63 / 75 °F
Wind: 9 mph from Southeast

Location: Trujillo Airport

Current Time: Sep 19, 2014 at 7:04:48 AM

Latest Report: Sep 19, 2014 at 6:00 AM


Visibility: 4 mi

Pressure: 29.98 "Hg

Humidity: 88%

Dew point: 57 °F

Location of TrujilloLocation

Historic Weather in Trujillo — Graph

°F

Trujillo temperature yesterday

Maximum temperature yesterday: 66 °F (at 11:00 AM)
Minimum temperature yesterday: 61 °F (at 12:00 AM)
Average temperature yesterday: 63 °F

Past Weeks' High & Low Weather Summary

 TemperatureHumidityPressure
High72 °F (Sep 5, 12:00 PM)94% (Sep 4, 9:00 PM)30.04 "Hg (Sep 4, 9:00 PM)
Low59 °F (Sep 8, 3:00 AM)45% (Sep 10, 3:00 AM)29.80 "Hg (Sep 11, 3:00 PM)
Average64 °F83%29.94 "Hg
* Reported Sep 4 6:00 AM — Sep 19 6:00 AM, Trujillo, Weather by CustomWeather, © 2014

Note: Actual official high and low records may vary slightly from our data, if they occured in-between our weather recording intervals... More about our weather records

Advertising

Trujillo weather history for previous 24 hours

 ConditionsComfort  
Time TempWeatherWind HumidityBarometerVisibility
6:00 AM
Sep 19
61 °FCool.9 mph88%29.98 "Hg4 mi
5:00 AM61 °FOvercast.8 mph88%29.95 "Hg4 mi
4:00 AM61 °FOvercast.9 mph88%29.95 "Hg4 mi
3:00 AM61 °FOvercast.8 mph88%29.95 "Hg4 mi
2:00 AM61 °FOvercast.9 mph88%29.95 "Hg5 mi
1:00 AM61 °FOvercast.9 mph88%29.95 "Hg4 mi
12:00 AM63 °FOvercast.9 mph83%30.01 "Hg6 mi
11:00 PM
Sep 18
63 °FOvercast.10 mph83%30.01 "Hg6 mi
10:00 PM63 °FOvercast.12 mph83%30.01 "Hg5 mi
9:00 PM63 °FOvercast.12 mph83%29.98 "Hg6 mi
8:00 PM63 °FOvercast.13 mph83%29.98 "Hg5 mi
7:00 PM63 °FLow clouds.13 mph88%29.95 "Hg5 mi
6:00 PM63 °FLow clouds.12 mph88%29.92 "Hg5 mi
5:00 PM64 °FScattered clouds.13 mph83%29.92 "Hg4 mi
4:00 PM64 °FClear.15 mph83%29.92 "Hg5 mi
3:00 PM66 °FScattered clouds.14 mph78%29.92 "Hg6 mi
2:00 PM66 °FScattered clouds.N/A78%29.95 "HgN/A
1:00 PM66 °FPassing clouds.16 mph73%29.98 "HgN/A
12:00 PM66 °FPassing clouds.15 mph78%30.01 "HgN/A
11:00 AM66 °FPassing clouds.13 mph78%30.01 "HgN/A
10:00 AM64 °FPassing clouds.12 mph78%30.04 "HgN/A
9:00 AM64 °FPartly sunny.9 mph78%30.04 "HgN/A
8:00 AM61 °FOvercast.9 mph88%30.01 "HgN/A
7:00 AM61 °FOvercast.7 mph88%30.01 "Hg5 mi
Weather by CustomWeather, © 2014

See weather overviewHow to use our weather pages